TimeCDT,TemperatureF,Dew PointF,Humidity,Sea Level PressureIn,VisibilityMPH,Wind Direction,Wind SpeedMPH,Gust SpeedMPH,PrecipitationIn,Events,Conditions,WindDirDegrees,DateUTC
12:53 AM,88.0,64.9,46,30.04,10.0,SE,9.2,-,N/A,,Partly Cloudy,130,2013-08-25 05:53:00
1:53 AM,86.0,66.0,51,30.04,10.0,SE,10.4,-,N/A,,Partly Cloudy,130,2013-08-25 06:53:00
2:53 AM,86.0,66.0,51,30.05,10.0,SE,11.5,-,N/A,,Clear,130,2013-08-25 07:53:00
3:53 AM,84.0,66.0,55,30.06,10.0,SE,9.2,-,N/A,,Clear,140,2013-08-25 08:53:00
4:53 AM,84.0,66.0,55,30.07,10.0,SSE,11.5,-,N/A,,Clear,150,2013-08-25 09:53:00
5:53 AM,82.9,66.9,58,30.09,10.0,South,6.9,-,N/A,,Clear,170,2013-08-25 10:53:00
6:53 AM,80.1,66.9,64,30.10,10.0,ESE,3.5,-,N/A,,Clear,120,2013-08-25 11:53:00
7:53 AM,82.0,68.0,62,30.11,10.0,ESE,4.6,-,N/A,,Clear,110,2013-08-25 12:53:00
8:53 AM,84.0,68.0,58,30.11,10.0,ESE,6.9,-,N/A,,Clear,120,2013-08-25 13:53:00
9:53 AM,87.1,69.1,55,30.12,10.0,SE,4.6,-,N/A,,Clear,130,2013-08-25 14:53:00
10:53 AM,89.1,69.1,52,30.13,10.0,Variable,6.9,-,N/A,,Partly Cloudy,0,2013-08-25 15:53:00
11:53 AM,91.9,68.0,45,30.12,10.0,ESE,13.8,-,N/A,,Partly Cloudy,120,2013-08-25 16:53:00
12:53 PM,93.9,66.9,41,30.09,10.0,ESE,10.4,16.1,N/A,,Partly Cloudy,110,2013-08-25 17:53:00
1:53 PM,96.1,64.0,35,30.08,10.0,East,16.1,28.8,N/A,,Partly Cloudy,100,2013-08-25 18:53:00
2:53 PM,98.1,63.0,31,30.07,10.0,East,15.0,23.0,N/A,,Partly Cloudy,100,2013-08-25 19:53:00
3:53 PM,98.1,63.0,31,30.05,10.0,ESE,10.4,21.9,N/A,,Scattered Clouds,110,2013-08-25 20:53:00
4:53 PM,98.1,63.0,31,30.03,10.0,SSE,12.7,-,N/A,,Scattered Clouds,150,2013-08-25 21:53:00
5:53 PM,98.1,63.0,31,30.02,10.0,ESE,12.7,-,N/A,,Mostly Cloudy,120,2013-08-25 22:53:00
6:53 PM,96.1,63.0,33,30.02,10.0,SE,9.2,-,N/A,,Mostly Cloudy,140,2013-08-25 23:53:00
7:53 PM,93.9,63.0,36,30.03,10.0,SE,11.5,-,N/A,,Mostly Cloudy,130,2013-08-26 00:53:00
8:53 PM,91.9,63.0,38,30.04,10.0,ESE,8.1,-,N/A,,Partly Cloudy,120,2013-08-26 01:53:00
9:53 PM,91.0,62.1,38,30.07,10.0,ESE,8.1,-,N/A,,Partly Cloudy,120,2013-08-26 02:53:00
10:53 PM,90.0,62.1,39,30.09,10.0,ESE,6.9,-,N/A,,Clear,120,2013-08-26 03:53:00
11:53 PM,89.1,63.0,42,30.10,10.0,ESE,10.4,-,N/A,,Clear,120,2013-08-26 04:53:00